Year,Month,Day,Hour,Minute,Value (Times are PST for temperature in C)
2008,05,17,00,00,15.30
2008,05,17,00,01,15.30
2008,05,17,00,02,15.30
2008,05,17,00,03,15.30
2008,05,17,00,04,15.30
2008,05,17,00,05,15.40
2008,05,17,00,06,15.40
2008,05,17,00,07,15.40
2008,05,17,00,08,15.40
2008,05,17,00,09,15.40
2008,05,17,00,10,15.40
2008,05,17,00,11,15.40
2008,05,17,00,12,15.40
2008,05,17,00,13,15.40
2008,05,17,00,14,15.40
2008,05,17,00,15,15.40
2008,05,17,00,16,15.40
2008,05,17,00,17,15.40
2008,05,17,00,18,15.40
2008,05,17,00,19,15.40
2008,05,17,00,20,15.40
2008,05,17,00,21,15.40
2008,05,17,00,22,15.40
2008,05,17,00,23,15.40
2008,05,17,00,24,15.40
2008,05,17,00,25,15.40
2008,05,17,00,26,15.30
2008,05,17,00,27,15.30
2008,05,17,00,28,15.30
2008,05,17,00,29,15.30
2008,05,17,00,30,15.30
2008,05,17,00,31,15.20
2008,05,17,00,32,15.20
2008,05,17,00,33,15.20
2008,05,17,00,34,15.10
2008,05,17,00,35,15.10
2008,05,17,00,36,15.10
2008,05,17,00,37,15.00
2008,05,17,00,38,15.00
2008,05,17,00,39,15.00
2008,05,17,00,40,14.90
2008,05,17,00,41,14.90
2008,05,17,00,42,14.90
2008,05,17,00,43,14.90
2008,05,17,00,44,14.90
2008,05,17,00,45,14.90
2008,05,17,00,46,14.90
2008,05,17,00,47,14.90
2008,05,17,00,48,14.90
2008,05,17,00,49,14.90
2008,05,17,00,50,15.00
2008,05,17,00,51,15.00
2008,05,17,00,52,15.00
2008,05,17,00,53,15.00
2008,05,17,00,54,15.00
2008,05,17,00,55,15.10
2008,05,17,00,56,15.10
2008,05,17,00,57,15.20
2008,05,17,00,58,15.20
2008,05,17,00,59,15.30
2008,05,17,01,00,15.30
2008,05,17,01,01,15.30
2008,05,17,01,02,15.30
2008,05,17,01,03,15.30
2008,05,17,01,04,15.40
2008,05,17,01,05,15.40
2008,05,17,01,06,15.50
2008,05,17,01,07,15.50
2008,05,17,01,08,15.50
2008,05,17,01,09,15.60
2008,05,17,01,10,15.60
2008,05,17,01,11,15.70
2008,05,17,01,12,15.70
2008,05,17,01,13,15.70
2008,05,17,01,14,15.70
2008,05,17,01,15,15.70
2008,05,17,01,16,15.70
2008,05,17,01,17,15.70
2008,05,17,01,18,15.70
2008,05,17,01,19,15.70
2008,05,17,01,20,15.70
2008,05,17,01,21,15.70
2008,05,17,01,22,15.60
2008,05,17,01,23,15.60
2008,05,17,01,24,15.60
2008,05,17,01,25,15.50
2008,05,17,01,26,15.50
2008,05,17,01,27,15.50
2008,05,17,01,28,15.40
2008,05,17,01,29,15.40
2008,05,17,01,30,15.40
2008,05,17,01,31,15.40
2008,05,17,01,32,15.40
2008,05,17,01,33,15.40
2008,05,17,01,34,15.40
2008,05,17,01,35,15.40
2008,05,17,01,36,15.40
2008,05,17,01,37,15.40
2008,05,17,01,38,15.40
2008,05,17,01,39,15.40
2008,05,17,01,40,15.40
2008,05,17,01,41,15.40
2008,05,17,01,42,15.40
2008,05,17,01,43,15.40
2008,05,17,01,44,15.40
2008,05,17,01,45,15.40
2008,05,17,01,46,15.40
2008,05,17,01,47,15.30
2008,05,17,01,48,15.30
2008,05,17,01,49,15.30
2008,05,17,01,50,15.30
2008,05,17,01,51,15.30
2008,05,17,01,52,15.20
2008,05,17,01,53,15.20
2008,05,17,01,54,15.20
2008,05,17,01,55,15.10
2008,05,17,01,56,15.10
2008,05,17,01,57,15.10
2008,05,17,01,58,15.10
2008,05,17,01,59,15.10
2008,05,17,02,00,15.10
2008,05,17,02,01,15.10
2008,05,17,02,02,15.10
2008,05,17,02,03,15.10
2008,05,17,02,04,15.10
2008,05,17,02,05,15.10
2008,05,17,02,06,15.10
2008,05,17,02,07,15.10
2008,05,17,02,08,15.10
2008,05,17,02,09,15.10
2008,05,17,02,10,15.10
2008,05,17,02,11,15.20
2008,05,17,02,12,15.20
2008,05,17,02,13,15.20
2008,05,17,02,14,15.20
2008,05,17,02,15,15.20
2008,05,17,02,16,15.20
2008,05,17,02,17,15.20
2008,05,17,02,18,15.20
2008,05,17,02,19,15.20
2008,05,17,02,20,15.20
2008,05,17,02,21,15.20
2008,05,17,02,22,15.20
2008,05,17,02,23,15.20
2008,05,17,02,24,15.20
2008,05,17,02,25,15.20
2008,05,17,02,26,15.20
2008,05,17,02,27,15.20
2008,05,17,02,28,15.10
2008,05,17,02,29,15.10
2008,05,17,02,30,15.10
2008,05,17,02,31,15.10
2008,05,17,02,32,15.00
2008,05,17,02,33,15.00
2008,05,17,02,34,14.90
2008,05,17,02,35,14.90
2008,05,17,02,36,14.90
2008,05,17,02,37,14.80
2008,05,17,02,38,14.80
2008,05,17,02,39,14.80
2008,05,17,02,40,14.70
2008,05,17,02,41,14.60
2008,05,17,02,42,14.60
2008,05,17,02,43,14.50
2008,05,17,02,44,14.40
2008,05,17,02,45,14.40
2008,05,17,02,46,14.30
2008,05,17,02,47,14.20
2008,05,17,02,48,14.20
2008,05,17,02,49,14.20
2008,05,17,02,50,14.20
2008,05,17,02,51,14.10
2008,05,17,02,52,14.10
2008,05,17,02,53,14.10
2008,05,17,02,54,14.10
2008,05,17,02,55,14.10
2008,05,17,02,56,14.10
2008,05,17,02,57,14.10
2008,05,17,02,58,14.10
2008,05,17,02,59,14.20
2008,05,17,03,00,14.20
2008,05,17,03,01,14.20
2008,05,17,03,02,14.20
2008,05,17,03,03,14.20
2008,05,17,03,04,14.20
2008,05,17,03,05,14.20
2008,05,17,03,06,14.20
2008,05,17,03,07,14.20
2008,05,17,03,08,14.20
2008,05,17,03,09,14.20
2008,05,17,03,10,14.20
2008,05,17,03,11,14.10
2008,05,17,03,12,14.00
2008,05,17,03,13,14.00
2008,05,17,03,14,13.90
2008,05,17,03,15,13.90
2008,05,17,03,16,13.80
2008,05,17,03,17,13.80
2008,05,17,03,18,13.70
2008,05,17,03,19,13.70
2008,05,17,03,20,13.70
2008,05,17,03,21,13.70
2008,05,17,03,22,13.80
2008,05,17,03,23,13.90
2008,05,17,03,24,13.90
2008,05,17,03,25,13.90
2008,05,17,03,26,14.00
2008,05,17,03,27,14.00
2008,05,17,03,28,14.10
2008,05,17,03,29,14.20
2008,05,17,03,30,14.30
2008,05,17,03,31,14.40
2008,05,17,03,32,14.50
2008,05,17,03,33,14.70
2008,05,17,03,34,14.80
2008,05,17,03,35,14.90
2008,05,17,03,36,15.00
2008,05,17,03,37,15.00
2008,05,17,03,38,15.10
2008,05,17,03,39,15.10
2008,05,17,03,40,15.10
2008,05,17,03,41,15.10
2008,05,17,03,42,15.10
2008,05,17,03,43,15.10
2008,05,17,03,44,15.10
2008,05,17,03,45,15.10
2008,05,17,03,46,15.10
2008,05,17,03,47,15.20
2008,05,17,03,48,15.20
2008,05,17,03,49,15.20
2008,05,17,03,50,15.20
2008,05,17,03,51,15.20
2008,05,17,03,52,15.20
2008,05,17,03,53,15.30
2008,05,17,03,54,15.30
2008,05,17,03,55,15.30
2008,05,17,03,56,15.40
2008,05,17,03,57,15.40
2008,05,17,03,58,15.50
2008,05,17,03,59,15.60
2008,05,17,04,00,15.60
2008,05,17,04,01,15.80
2008,05,17,04,02,15.90
2008,05,17,04,03,15.90
2008,05,17,04,04,16.10
2008,05,17,04,05,16.10
2008,05,17,04,06,16.30
2008,05,17,04,07,16.40
2008,05,17,04,08,16.50
2008,05,17,04,09,16.60
2008,05,17,04,10,16.70
2008,05,17,04,11,16.70
2008,05,17,04,12,16.70
2008,05,17,04,13,16.70
2008,05,17,04,14,16.70
2008,05,17,04,15,16.80
2008,05,17,04,16,16.80
2008,05,17,04,17,16.80
2008,05,17,04,18,16.80
2008,05,17,04,19,16.80
2008,05,17,04,20,16.80
2008,05,17,04,21,16.80
2008,05,17,04,22,16.90
2008,05,17,04,23,16.90
2008,05,17,04,24,16.90
2008,05,17,04,25,16.80
2008,05,17,04,26,16.80
2008,05,17,04,27,16.80
2008,05,17,04,28,16.80
2008,05,17,04,29,16.80
2008,05,17,04,30,16.80
2008,05,17,04,31,16.80
2008,05,17,04,32,16.70
2008,05,17,04,33,16.70
2008,05,17,04,34,16.70
2008,05,17,04,35,16.70
2008,05,17,04,36,16.70
2008,05,17,04,37,16.70
2008,05,17,04,38,16.70
2008,05,17,04,39,16.70
2008,05,17,04,40,16.60
2008,05,17,04,41,16.60
2008,05,17,04,42,16.60
2008,05,17,04,43,16.60
2008,05,17,04,44,16.60
2008,05,17,04,45,16.50
2008,05,17,04,46,16.40
2008,05,17,04,47,16.30
2008,05,17,04,48,16.30
2008,05,17,04,49,16.30
2008,05,17,04,50,16.30
2008,05,17,04,51,16.30
2008,05,17,04,52,16.30
2008,05,17,04,53,16.20
2008,05,17,04,54,16.20
2008,05,17,04,55,16.20
2008,05,17,04,56,16.20
2008,05,17,04,57,16.10
2008,05,17,04,58,16.00
2008,05,17,04,59,15.80
2008,05,17,05,00,15.70
2008,05,17,05,01,15.60
2008,05,17,05,02,15.50
2008,05,17,05,03,15.30
2008,05,17,05,04,15.20
2008,05,17,05,05,15.10
2008,05,17,05,06,15.00
2008,05,17,05,07,14.80
2008,05,17,05,08,14.70
2008,05,17,05,09,14.60
2008,05,17,05,10,14.60
2008,05,17,05,11,14.50
2008,05,17,05,12,14.40
2008,05,17,05,13,14.30
2008,05,17,05,14,14.30
2008,05,17,05,15,14.20
2008,05,17,05,16,14.20
2008,05,17,05,17,14.10
2008,05,17,05,18,14.00
2008,05,17,05,19,14.00
2008,05,17,05,20,13.90
2008,05,17,05,21,13.90
2008,05,17,05,22,13.90
2008,05,17,05,23,13.80
2008,05,17,05,24,13.70
2008,05,17,05,25,13.70
2008,05,17,05,26,13.70
2008,05,17,05,27,13.70
2008,05,17,05,28,13.60
2008,05,17,05,29,13.60
2008,05,17,05,30,13.60
2008,05,17,05,31,13.60
2008,05,17,05,32,13.60
2008,05,17,05,33,13.60
2008,05,17,05,34,13.60
2008,05,17,05,35,13.60
2008,05,17,05,36,13.60
2008,05,17,05,37,13.70
2008,05,17,05,38,13.70
2008,05,17,05,39,13.70
2008,05,17,05,40,13.70
2008,05,17,05,41,13.70
2008,05,17,05,42,13.70
2008,05,17,05,43,13.80
2008,05,17,05,44,13.80
2008,05,17,05,45,13.90
2008,05,17,05,46,13.90
2008,05,17,05,47,14.00
2008,05,17,05,48,14.00
2008,05,17,05,49,14.10
2008,05,17,05,50,14.20
2008,05,17,05,51,14.20
2008,05,17,05,52,14.30
2008,05,17,05,53,14.40
2008,05,17,05,54,14.40
2008,05,17,05,55,14.50
2008,05,17,05,56,14.50
2008,05,17,05,57,14.60
2008,05,17,05,58,14.50
2008,05,17,05,59,14.50
2008,05,17,06,00,14.50
2008,05,17,06,01,14.50
2008,05,17,06,02,14.30
2008,05,17,06,03,14.30
2008,05,17,06,04,14.20
2008,05,17,06,05,14.20
2008,05,17,06,06,14.10
2008,05,17,06,07,14.10
2008,05,17,06,08,14.00
2008,05,17,06,09,14.00
2008,05,17,06,10,13.90
2008,05,17,06,11,13.90
2008,05,17,06,12,13.80
2008,05,17,06,13,13.70
2008,05,17,06,14,13.70
2008,05,17,06,15,13.70
2008,05,17,06,16,13.60
2008,05,17,06,17,13.60
2008,05,17,06,18,13.60
2008,05,17,06,19,13.50
2008,05,17,06,20,13.50
2008,05,17,06,21,13.50
2008,05,17,06,22,13.50
2008,05,17,06,23,13.50
2008,05,17,06,24,13.50
2008,05,17,06,25,13.40
2008,05,17,06,26,13.40
2008,05,17,06,27,13.40
2008,05,17,06,28,13.40
2008,05,17,06,29,13.40
2008,05,17,06,30,13.40
2008,05,17,06,31,13.50
2008,05,17,06,32,13.50
2008,05,17,06,33,13.60
2008,05,17,06,34,13.60
2008,05,17,06,35,13.70
2008,05,17,06,36,13.70
2008,05,17,06,37,13.80
2008,05,17,06,38,13.90
2008,05,17,06,39,14.00
2008,05,17,06,40,14.10
2008,05,17,06,41,14.30
2008,05,17,06,42,14.50
2008,05,17,06,43,14.60
2008,05,17,06,44,14.80
2008,05,17,06,45,14.90
2008,05,17,06,46,15.10
2008,05,17,06,47,15.20
2008,05,17,06,48,15.30
2008,05,17,06,49,15.30
2008,05,17,06,50,15.40
2008,05,17,06,51,15.50
2008,05,17,06,52,15.60
2008,05,17,06,53,15.60
2008,05,17,06,54,15.70
2008,05,17,06,55,15.70
2008,05,17,06,56,15.70
2008,05,17,06,57,15.80
2008,05,17,06,58,15.80
2008,05,17,06,59,15.80
2008,05,17,07,00,15.80
2008,05,17,07,01,15.90
2008,05,17,07,02,15.90
2008,05,17,07,03,15.90
2008,05,17,07,04,16.00
2008,05,17,07,05,16.10
2008,05,17,07,06,16.10
2008,05,17,07,07,16.10
2008,05,17,07,08,16.10
2008,05,17,07,09,16.20
2008,05,17,07,10,16.20
2008,05,17,07,11,16.20
2008,05,17,07,12,16.20
2008,05,17,07,13,16.10
2008,05,17,07,14,16.10
2008,05,17,07,15,16.10
2008,05,17,07,16,16.20
2008,05,17,07,17,16.20
2008,05,17,07,18,16.30
2008,05,17,07,19,16.30
2008,05,17,07,20,16.40
2008,05,17,07,21,16.40
2008,05,17,07,22,16.50
2008,05,17,07,23,16.60
2008,05,17,07,24,16.70
2008,05,17,07,25,16.70
2008,05,17,07,26,16.70
2008,05,17,07,27,16.80
2008,05,17,07,28,16.90
2008,05,17,07,29,16.90
2008,05,17,07,30,17.00
2008,05,17,07,31,17.10
2008,05,17,07,32,17.10
2008,05,17,07,33,17.20
2008,05,17,07,34,17.30
2008,05,17,07,35,17.30
2008,05,17,07,36,17.40
2008,05,17,07,37,17.50
2008,05,17,07,38,17.50
2008,05,17,07,39,17.60
2008,05,17,07,40,17.70
2008,05,17,07,41,17.70
2008,05,17,07,42,17.80
2008,05,17,07,43,17.80
2008,05,17,07,44,17.90
2008,05,17,07,45,17.90
2008,05,17,07,46,18.00
2008,05,17,07,47,18.10
2008,05,17,07,48,18.20
2008,05,17,07,49,18.20
2008,05,17,07,50,18.20
2008,05,17,07,51,18.30
2008,05,17,07,52,18.40
2008,05,17,07,53,18.50
2008,05,17,07,54,18.60
2008,05,17,07,55,18.70
2008,05,17,07,56,18.80
2008,05,17,07,57,19.00
2008,05,17,07,58,19.10
2008,05,17,07,59,19.10
2008,05,17,08,00,19.40
2008,05,17,08,01,19.50
2008,05,17,08,02,19.60
2008,05,17,08,03,19.70
2008,05,17,08,04,19.80
2008,05,17,08,05,19.90
2008,05,17,08,06,20.00
2008,05,17,08,07,20.10
2008,05,17,08,08,20.10
2008,05,17,08,09,20.20
2008,05,17,08,10,20.20
2008,05,17,08,11,20.20
2008,05,17,08,12,20.30
2008,05,17,08,13,20.30
2008,05,17,08,14,20.30
2008,05,17,08,15,20.40
2008,05,17,08,16,20.40
2008,05,17,08,17,20.40
2008,05,17,08,18,20.40
2008,05,17,08,19,20.50
2008,05,17,08,20,20.50
2008,05,17,08,21,20.50
2008,05,17,08,22,20.50
2008,05,17,08,23,20.60
2008,05,17,08,24,20.60
2008,05,17,08,25,20.60
2008,05,17,08,26,20.60
2008,05,17,08,27,20.60
2008,05,17,08,28,20.60
2008,05,17,08,29,20.60
2008,05,17,08,30,20.60
2008,05,17,08,31,20.70
2008,05,17,08,32,20.70
2008,05,17,08,33,20.70
2008,05,17,08,34,20.70
2008,05,17,08,35,20.70
2008,05,17,08,36,20.70
2008,05,17,08,37,20.70
2008,05,17,08,38,20.80
2008,05,17,08,39,20.80
2008,05,17,08,40,20.90
2008,05,17,08,41,20.90
2008,05,17,08,42,20.90
2008,05,17,08,43,20.90
2008,05,17,08,44,20.90
2008,05,17,08,45,20.80
2008,05,17,08,46,20.80
2008,05,17,08,47,20.70
2008,05,17,08,48,20.70
2008,05,17,08,49,20.70
2008,05,17,08,50,20.70
2008,05,17,08,51,20.70
2008,05,17,08,52,20.80
2008,05,17,08,53,20.80
2008,05,17,08,54,20.90
2008,05,17,08,55,21.00
2008,05,17,08,56,21.00
2008,05,17,08,57,21.10
2008,05,17,08,58,21.10
2008,05,17,08,59,21.20
2008,05,17,09,00,21.10
2008,05,17,09,01,21.10
2008,05,17,09,02,21.00
2008,05,17,09,03,21.00
2008,05,17,09,04,21.00
2008,05,17,09,05,21.10
2008,05,17,09,06,21.10
2008,05,17,09,07,21.10
2008,05,17,09,08,21.10
2008,05,17,09,09,21.10
2008,05,17,09,10,21.10
2008,05,17,09,11,21.10
2008,05,17,09,12,21.30
2008,05,17,09,13,21.40
2008,05,17,09,14,21.50
2008,05,17,09,15,21.60
2008,05,17,09,16,21.70
2008,05,17,09,17,21.70
2008,05,17,09,18,21.80
2008,05,17,09,19,21.90
2008,05,17,09,20,21.90
2008,05,17,09,21,22.00
2008,05,17,09,22,22.00
2008,05,17,09,23,22.10
2008,05,17,09,24,22.20
2008,05,17,09,25,22.20
2008,05,17,09,26,22.20
2008,05,17,09,27,22.20
2008,05,17,09,28,22.20
2008,05,17,09,29,22.20
2008,05,17,09,30,22.30
2008,05,17,09,31,22.30
2008,05,17,09,32,22.20
2008,05,17,09,33,22.10
2008,05,17,09,34,22.10
2008,05,17,09,35,22.10
2008,05,17,09,36,22.10
2008,05,17,09,37,22.10
2008,05,17,09,38,22.20
2008,05,17,09,39,22.20
2008,05,17,09,40,22.30
2008,05,17,09,41,22.40
2008,05,17,09,42,22.50
2008,05,17,09,43,22.60
2008,05,17,09,44,22.60
2008,05,17,09,45,22.50
2008,05,17,09,46,22.50
2008,05,17,09,47,22.30
2008,05,17,09,48,22.20
2008,05,17,09,49,22.20
2008,05,17,09,50,22.10
2008,05,17,09,51,22.10
2008,05,17,09,52,22.10
2008,05,17,09,53,22.20
2008,05,17,09,54,22.20
2008,05,17,09,55,22.20
2008,05,17,09,56,22.30
2008,05,17,09,57,22.40
2008,05,17,09,58,22.40
2008,05,17,09,59,22.40
2008,05,17,10,00,22.40
2008,05,17,10,01,22.40
2008,05,17,10,02,22.40
2008,05,17,10,03,22.40
2008,05,17,10,04,22.40
2008,05,17,10,05,22.50
2008,05,17,10,06,22.50
2008,05,17,10,07,22.60
2008,05,17,10,08,22.50
2008,05,17,10,09,22.60
2008,05,17,10,10,22.60
2008,05,17,10,11,22.70
2008,05,17,10,12,22.70
2008,05,17,10,13,22.80
2008,05,17,10,14,22.80
2008,05,17,10,15,22.90
2008,05,17,10,16,22.90
2008,05,17,10,17,23.00
2008,05,17,10,18,23.10
2008,05,17,10,19,23.20
2008,05,17,10,20,23.30
2008,05,17,10,21,23.30
2008,05,17,10,22,23.30
2008,05,17,10,23,23.30
2008,05,17,10,24,23.30
2008,05,17,10,25,23.20
2008,05,17,10,26,23.20
2008,05,17,10,27,23.30
2008,05,17,10,28,23.30
2008,05,17,10,29,23.30
2008,05,17,10,30,23.30
2008,05,17,10,31,23.30
2008,05,17,10,32,23.30
2008,05,17,10,33,23.30
2008,05,17,10,34,23.30
2008,05,17,10,35,23.20
2008,05,17,10,36,23.20
2008,05,17,10,37,23.20
2008,05,17,10,38,23.20
2008,05,17,10,39,23.30
2008,05,17,10,40,23.30
2008,05,17,10,41,23.20
2008,05,17,10,42,23.10
2008,05,17,10,43,22.90
2008,05,17,10,44,22.90
2008,05,17,10,45,22.90
2008,05,17,10,46,22.90
2008,05,17,10,47,22.90
2008,05,17,10,48,22.90
2008,05,17,10,49,22.90
2008,05,17,10,50,22.80
2008,05,17,10,51,22.80
2008,05,17,10,52,22.90
2008,05,17,10,53,23.00
2008,05,17,10,54,23.20
2008,05,17,10,55,23.30
2008,05,17,10,56,23.30
2008,05,17,10,57,23.40
2008,05,17,10,58,23.40
2008,05,17,10,59,23.40
2008,05,17,11,00,23.50
2008,05,17,11,01,23.60
2008,05,17,11,02,23.60
2008,05,17,11,03,23.60
2008,05,17,11,04,23.60
2008,05,17,11,05,23.60
2008,05,17,11,06,23.60
2008,05,17,11,07,23.60
2008,05,17,11,08,23.50
2008,05,17,11,09,23.40
2008,05,17,11,10,23.40
2008,05,17,11,11,23.30
2008,05,17,11,12,23.30
2008,05,17,11,13,23.30
2008,05,17,11,14,23.30
2008,05,17,11,15,23.30
2008,05,17,11,16,23.30
2008,05,17,11,17,23.30
2008,05,17,11,18,23.30
2008,05,17,11,19,23.30
2008,05,17,11,20,23.30
2008,05,17,11,21,23.40
2008,05,17,11,22,23.40
2008,05,17,11,23,23.40
2008,05,17,11,24,23.40
2008,05,17,11,25,23.50
2008,05,17,11,26,23.40
2008,05,17,11,27,23.40
2008,05,17,11,28,23.40
2008,05,17,11,29,23.30
2008,05,17,11,30,23.30
2008,05,17,11,31,23.40
2008,05,17,11,32,23.40
2008,05,17,11,33,23.40
2008,05,17,11,34,23.40
2008,05,17,11,35,23.40
2008,05,17,11,36,23.40
2008,05,17,11,37,23.50
2008,05,17,11,38,23.60
2008,05,17,11,39,23.60
2008,05,17,11,40,23.60
2008,05,17,11,41,23.60
2008,05,17,11,42,23.60
2008,05,17,11,43,23.60
2008,05,17,11,44,23.70
2008,05,17,11,45,23.70
2008,05,17,11,46,23.70
2008,05,17,11,47,23.70
2008,05,17,11,48,23.60
2008,05,17,11,49,23.40
2008,05,17,11,50,23.30
2008,05,17,11,51,23.30
2008,05,17,11,52,23.40
2008,05,17,11,53,23.60
2008,05,17,11,54,23.70
2008,05,17,11,55,23.70
2008,05,17,11,56,23.70
2008,05,17,11,57,23.70
2008,05,17,11,58,23.60
2008,05,17,11,59,23.50
2008,05,17,12,00,23.40
2008,05,17,12,01,23.30
2008,05,17,12,02,23.30
2008,05,17,12,03,23.30
2008,05,17,12,04,23.30
2008,05,17,12,05,23.30
2008,05,17,12,06,23.30
2008,05,17,12,07,23.10
2008,05,17,12,08,22.90
2008,05,17,12,09,22.90
2008,05,17,12,10,22.90
2008,05,17,12,11,22.90
2008,05,17,12,12,22.90
2008,05,17,12,13,22.80
2008,05,17,12,14,22.80
2008,05,17,12,15,22.80
2008,05,17,12,16,22.80
2008,05,17,12,17,22.80
2008,05,17,12,18,22.80
2008,05,17,12,19,22.90
2008,05,17,12,20,22.90
2008,05,17,12,21,23.10
2008,05,17,12,22,23.30
2008,05,17,12,23,23.30
2008,05,17,12,24,23.30
2008,05,17,12,25,23.30
2008,05,17,12,26,23.30
2008,05,17,12,27,23.20
2008,05,17,12,28,23.20
2008,05,17,12,29,23.10
2008,05,17,12,30,23.10
2008,05,17,12,31,23.10
2008,05,17,12,32,23.10
2008,05,17,12,33,23.00
2008,05,17,12,34,22.90
2008,05,17,12,35,22.90
2008,05,17,12,36,22.90
2008,05,17,12,37,22.90
2008,05,17,12,38,23.00
2008,05,17,12,39,23.10
2008,05,17,12,40,23.20
2008,05,17,12,41,23.30
2008,05,17,12,42,23.30
2008,05,17,12,43,23.30
2008,05,17,12,44,23.30
2008,05,17,12,45,23.30
2008,05,17,12,46,23.40
2008,05,17,12,47,23.50
2008,05,17,12,48,23.70
2008,05,17,12,49,23.70
2008,05,17,12,50,23.80
2008,05,17,12,51,24.00
2008,05,17,12,52,24.10
2008,05,17,12,53,24.10
2008,05,17,12,54,24.10
2008,05,17,12,55,24.00
2008,05,17,12,56,23.90
2008,05,17,12,57,23.80
2008,05,17,12,58,23.90
2008,05,17,12,59,24.00
2008,05,17,13,00,23.90
2008,05,17,13,01,23.90
2008,05,17,13,02,24.10
2008,05,17,13,03,24.10
2008,05,17,13,04,24.10
2008,05,17,13,05,24.30
2008,05,17,13,06,24.40
2008,05,17,13,07,24.40
2008,05,17,13,08,24.20
2008,05,17,13,09,24.10
2008,05,17,13,10,24.00
2008,05,17,13,11,23.80
2008,05,17,13,12,23.70
2008,05,17,13,13,23.40
2008,05,17,13,14,23.30
2008,05,17,13,15,23.30
2008,05,17,13,16,23.40
2008,05,17,13,17,23.50
2008,05,17,13,18,23.70
2008,05,17,13,19,23.80
2008,05,17,13,20,24.00
2008,05,17,13,21,24.10
2008,05,17,13,22,24.30
2008,05,17,13,23,24.30
2008,05,17,13,24,24.30
2008,05,17,13,25,24.20
2008,05,17,13,26,24.20
2008,05,17,13,27,24.30
2008,05,17,13,28,24.30
2008,05,17,13,29,24.10
2008,05,17,13,30,23.90
2008,05,17,13,31,23.90
2008,05,17,13,32,23.90
2008,05,17,13,33,24.10
2008,05,17,13,34,24.20
2008,05,17,13,35,24.30
2008,05,17,13,36,24.50
2008,05,17,13,37,24.50
2008,05,17,13,38,24.50
2008,05,17,13,39,24.60
2008,05,17,13,40,24.70
2008,05,17,13,41,24.70
2008,05,17,13,42,24.80
2008,05,17,13,43,24.70
2008,05,17,13,44,24.60
2008,05,17,13,45,24.60
2008,05,17,13,46,24.70
2008,05,17,13,47,24.60
2008,05,17,13,48,24.60
2008,05,17,13,49,24.60
2008,05,17,13,50,24.60
2008,05,17,13,51,24.80
2008,05,17,13,52,24.90
2008,05,17,13,53,25.10
2008,05,17,13,54,25.30
2008,05,17,13,55,25.40
2008,05,17,13,56,25.40
2008,05,17,13,57,25.50
2008,05,17,13,58,25.50
2008,05,17,13,59,25.60
2008,05,17,14,00,25.70
2008,05,17,14,01,25.80
2008,05,17,14,02,25.60
2008,05,17,14,03,25.60
2008,05,17,14,04,25.40
2008,05,17,14,05,25.40
2008,05,17,14,06,25.40
2008,05,17,14,07,25.40
2008,05,17,14,08,25.50
2008,05,17,14,09,25.60
2008,05,17,14,10,25.70
2008,05,17,14,11,25.70
2008,05,17,14,12,25.60
2008,05,17,14,13,25.60
2008,05,17,14,14,25.60
2008,05,17,14,15,25.60
2008,05,17,14,16,25.60
2008,05,17,14,17,25.40
2008,05,17,14,18,25.30
2008,05,17,14,19,25.20
2008,05,17,14,20,25.20
2008,05,17,14,21,25.20
2008,05,17,14,22,25.10
2008,05,17,14,23,25.10
2008,05,17,14,24,25.10
2008,05,17,14,25,25.00
2008,05,17,14,26,24.90
2008,05,17,14,27,24.80
2008,05,17,14,28,24.70
2008,05,17,14,29,24.60
2008,05,17,14,30,24.40
2008,05,17,14,31,24.40
2008,05,17,14,32,24.30
2008,05,17,14,33,24.30
2008,05,17,14,34,24.20
2008,05,17,14,35,24.20
2008,05,17,14,36,24.20
2008,05,17,14,37,24.10
2008,05,17,14,38,24.00
2008,05,17,14,39,23.90
2008,05,17,14,40,23.90
2008,05,17,14,41,23.80
2008,05,17,14,42,23.70
2008,05,17,14,43,23.80
2008,05,17,14,44,23.90
2008,05,17,14,45,24.00
2008,05,17,14,46,24.00
2008,05,17,14,47,23.90
2008,05,17,14,48,23.90
2008,05,17,14,49,24.10
2008,05,17,14,50,24.10
2008,05,17,14,51,24.30
2008,05,17,14,52,24.30
2008,05,17,14,53,24.30
2008,05,17,14,54,24.30
2008,05,17,14,55,24.20
2008,05,17,14,56,24.10
2008,05,17,14,57,24.10
2008,05,17,14,58,24.10
2008,05,17,14,59,24.10
2008,05,17,15,00,24.10
2008,05,17,15,01,24.10
2008,05,17,15,02,24.10
2008,05,17,15,03,24.10
2008,05,17,15,04,24.10
2008,05,17,15,05,24.10
2008,05,17,15,06,24.20
2008,05,17,15,07,24.30
2008,05,17,15,08,24.50
2008,05,17,15,09,24.80
2008,05,17,15,10,25.00
2008,05,17,15,11,25.30
2008,05,17,15,12,25.30
2008,05,17,15,13,25.30
2008,05,17,15,14,25.30
2008,05,17,15,15,25.30
2008,05,17,15,16,25.30
2008,05,17,15,17,25.40
2008,05,17,15,18,25.50
2008,05,17,15,19,25.60
2008,05,17,15,20,25.70
2008,05,17,15,21,25.90
2008,05,17,15,22,25.90
2008,05,17,15,23,25.70
2008,05,17,15,24,25.80
2008,05,17,15,25,25.80
2008,05,17,15,26,25.80
2008,05,17,15,27,25.80
2008,05,17,15,28,25.90
2008,05,17,15,29,25.80
2008,05,17,15,30,25.80
2008,05,17,15,31,25.80
2008,05,17,15,32,25.70
2008,05,17,15,33,25.70
2008,05,17,15,34,25.70
2008,05,17,15,35,25.60
2008,05,17,15,36,25.70
2008,05,17,15,37,25.80
2008,05,17,15,38,25.80
2008,05,17,15,39,25.70
2008,05,17,15,40,25.80
2008,05,17,15,41,25.90
2008,05,17,15,42,25.90
2008,05,17,15,43,25.80
2008,05,17,15,44,25.80
2008,05,17,15,45,25.90
2008,05,17,15,46,26.00
2008,05,17,15,47,26.20
2008,05,17,15,48,26.30
2008,05,17,15,49,26.30
2008,05,17,15,50,26.30
2008,05,17,15,51,26.30
2008,05,17,15,52,26.50
2008,05,17,15,53,26.60
2008,05,17,15,54,26.60
2008,05,17,15,55,26.70
2008,05,17,15,56,26.70
2008,05,17,15,57,26.60
2008,05,17,15,58,26.50
2008,05,17,15,59,26.40
2008,05,17,16,00,26.30
2008,05,17,16,01,26.20
2008,05,17,16,02,26.20
2008,05,17,16,03,26.20
2008,05,17,16,04,26.30
2008,05,17,16,05,26.30
2008,05,17,16,06,26.30
2008,05,17,16,07,26.20
2008,05,17,16,08,26.10
2008,05,17,16,09,26.00
2008,05,17,16,10,26.00
2008,05,17,16,11,26.00
2008,05,17,16,12,26.10
2008,05,17,16,13,26.00
2008,05,17,16,14,25.90
2008,05,17,16,15,25.90
2008,05,17,16,16,25.90
2008,05,17,16,17,25.90
2008,05,17,16,18,25.80
2008,05,17,16,19,25.70
2008,05,17,16,20,25.60
2008,05,17,16,21,25.50
2008,05,17,16,22,25.50
2008,05,17,16,23,25.40
2008,05,17,16,24,25.50
2008,05,17,16,25,25.60
2008,05,17,16,26,25.70
2008,05,17,16,27,25.80
2008,05,17,16,28,25.90
2008,05,17,16,29,25.90
2008,05,17,16,30,25.70
2008,05,17,16,31,25.70
2008,05,17,16,32,25.70
2008,05,17,16,33,25.60
2008,05,17,16,34,25.60
2008,05,17,16,35,25.50
2008,05,17,16,36,25.60
2008,05,17,16,37,25.70
2008,05,17,16,38,25.70
2008,05,17,16,39,25.80
2008,05,17,16,40,25.80
2008,05,17,16,41,25.80
2008,05,17,16,42,25.70
2008,05,17,16,43,25.70
2008,05,17,16,44,25.60
2008,05,17,16,45,25.50
2008,05,17,16,46,25.50
2008,05,17,16,47,25.50
2008,05,17,16,48,25.50
2008,05,17,16,49,25.50
2008,05,17,16,50,25.50
2008,05,17,16,51,25.50
2008,05,17,16,52,25.60
2008,05,17,16,53,25.60
2008,05,17,16,54,25.60
2008,05,17,16,55,25.50
2008,05,17,16,56,25.50
2008,05,17,16,57,25.50
2008,05,17,16,58,25.50
2008,05,17,16,59,25.50
2008,05,17,17,00,25.50
2008,05,17,17,01,25.60
2008,05,17,17,02,25.70
2008,05,17,17,03,25.80
2008,05,17,17,04,25.90
2008,05,17,17,05,26.00
2008,05,17,17,06,26.10
2008,05,17,17,07,26.10
2008,05,17,17,08,26.30
2008,05,17,17,09,26.50
2008,05,17,17,10,26.70
2008,05,17,17,11,26.80
2008,05,17,17,12,27.00
2008,05,17,17,13,27.20
2008,05,17,17,14,27.40
2008,05,17,17,15,27.70
2008,05,17,17,16,27.90
2008,05,17,17,17,28.20
2008,05,17,17,18,28.30
2008,05,17,17,19,28.50